Showing default

FLOCK 4BE 36, 60486

Orbit data source: Space-Track

FLOCK 4BE 36, 60486 is a payload satellite owned by Planet (US) in SSO that was launched on Fri, 16 Aug 2024 UTC via an FALCON 9 launch vehicle from the Air Force Western Test Range (AFWTR). Payload-class satellites include a variety of spacecraft equipped with specific instruments for various scientific and technological missions. These include communications satellites like Starlink; space stations such as the ISS; scientific satellites like the Hubble; Earth observation satellites from companies like Planet Labs, Umbra, and HawkEye 360; GPS; miniature CubeSats for education and research; and military/defense satellites.

Loading next visibility...
Identifier
60486, 2024-149U
Orbit
SSO
Country
Flag of USUS
Related business
Manufacturer
Planet
Mission
Operational Commercial Imaging
Bus & Motor
CUBESAT 3U, Unknown motor
Mass
5.7 kg wet, 5.7 kg dry
Launch date (UTC)
2024-08-16 (2 years ago)
Launch vehicle
FALCON 9
Launch site
Air Force Western Test Range (AFWTR)
Object type
Payload
Rocket body
Debris
Shape & HBR
Box + 2 Pan, 1.0 m
Radar Cross Section
0.072 m², Medium (>0.1 m² and < 1m²)

Expand to show TLE details & history
Last TLE update: 2 days ago

TLE from 2 days ago
0 FLOCK 4BE 36
1 60486U 24149U   26173.24121671  .00012143  00000-0  27877-3 0  9992
2 60486  97.3743 257.7308 0002728 227.8239 132.2777 15.42851693103134
Epoch: 2026-06-22T05:47Z
TLE epoch observation values (Epoch: 2026-06-22T05:47:21.123Z)
Latitude
-0.00006°
Longitude
-99.53717°
Altitude
442.071 km
Speed
7.646 km/s
True Right ascension
17h 10m 55s
True Declination
0° 00' 00"
Sunlit
Object was in full shadow at epoch
Visualization orbit readout
Latitude
Unknown
Longitude
Unknown
Altitude
Unknown
Speed
Unknown
Apparent Right ascension
Unknown
Apparent Declination
Unknown
Sunlit
N/A
Visualization observer readout
Local Sidereal Time
12:18:41
Azimuth
Unknown
Elevation
Unknown
Doppler factor
Unknown
Orbital elements
Apogee altitude
436.49 km
Perigee altitude
432.773 km
Semi-major axis
6,812.769 km
Eccentricity
0.00027
Inclination
97.3743°
RAAN
257.7308°
Arg. of periapsis
227.8239°
True anomaly
132.30082°
Mean anomaly
132.2777°
Eccentric anomaly
132.28926°
Mean motion
3.85974 °/min
Orbital period
93.27 mins
BSTAR
0.00027877
Loading maneuver chart data...
Computing Atmospheric mass density...
Loading historical data...
Loading historical data...
Loading historical data...
Loading historical data...
Loading historical data...
Loading historical data...
Loading historical data...

Documentation

Showing up to 5 results
|